Year,Month,Day,Hour,Minute,Value (Times are PST for temperature in C)
2019,03,19,00,00,4.90
2019,03,19,00,01,4.90
2019,03,19,00,02,4.90
2019,03,19,00,03,4.90
2019,03,19,00,04,4.90
2019,03,19,00,05,4.90
2019,03,19,00,06,4.90
2019,03,19,00,07,4.80
2019,03,19,00,08,4.80
2019,03,19,00,09,4.80
2019,03,19,00,10,4.80
2019,03,19,00,11,4.80
2019,03,19,00,12,4.80
2019,03,19,00,13,4.80
2019,03,19,00,14,4.80
2019,03,19,00,15,4.80
2019,03,19,00,16,4.80
2019,03,19,00,17,4.80
2019,03,19,00,18,4.80
2019,03,19,00,19,4.80
2019,03,19,00,20,4.80
2019,03,19,00,21,4.70
2019,03,19,00,22,4.70
2019,03,19,00,23,4.70
2019,03,19,00,24,4.70
2019,03,19,00,25,4.70
2019,03,19,00,26,4.60
2019,03,19,00,27,4.60
2019,03,19,00,28,4.60
2019,03,19,00,29,4.60
2019,03,19,00,30,4.60
2019,03,19,00,31,4.50
2019,03,19,00,32,4.50
2019,03,19,00,33,4.50
2019,03,19,00,34,4.40
2019,03,19,00,35,4.40
2019,03,19,00,36,4.40
2019,03,19,00,37,4.40
2019,03,19,00,38,4.30
2019,03,19,00,39,4.30
2019,03,19,00,40,4.30
2019,03,19,00,41,4.30
2019,03,19,00,42,4.30
2019,03,19,00,43,4.30
2019,03,19,00,44,4.30
2019,03,19,00,45,4.30
2019,03,19,00,46,4.30
2019,03,19,00,47,4.40
2019,03,19,00,48,4.40
2019,03,19,00,49,4.40
2019,03,19,00,50,4.40
2019,03,19,00,51,4.40
2019,03,19,00,52,4.40
2019,03,19,00,53,4.40
2019,03,19,00,54,4.40
2019,03,19,00,55,4.40
2019,03,19,00,56,4.40
2019,03,19,00,57,4.30
2019,03,19,00,58,4.30
2019,03,19,00,59,4.30
2019,03,19,01,00,4.20
2019,03,19,01,01,4.20
2019,03,19,01,02,4.20
2019,03,19,01,03,4.20
2019,03,19,01,04,4.20
2019,03,19,01,05,4.10
2019,03,19,01,06,4.10
2019,03,19,01,07,4.10
2019,03,19,01,08,4.10
2019,03,19,01,09,4.10
2019,03,19,01,10,4.10
2019,03,19,01,11,4.10
2019,03,19,01,12,4.10
2019,03,19,01,13,4.10
2019,03,19,01,14,4.10
2019,03,19,01,15,4.10
2019,03,19,01,16,4.10
2019,03,19,01,17,4.10
2019,03,19,01,18,4.00
2019,03,19,01,19,4.00
2019,03,19,01,20,4.00
2019,03,19,01,21,3.90
2019,03,19,01,22,3.90
2019,03,19,01,23,3.80
2019,03,19,01,24,3.80
2019,03,19,01,25,3.80
2019,03,19,01,26,3.80
2019,03,19,01,27,3.80
2019,03,19,01,28,3.80
2019,03,19,01,29,3.80
2019,03,19,01,30,3.80
2019,03,19,01,31,3.80
2019,03,19,01,32,3.80
2019,03,19,01,33,3.90
2019,03,19,01,34,3.90
2019,03,19,01,35,3.90
2019,03,19,01,36,3.90
2019,03,19,01,37,3.90
2019,03,19,01,38,3.90
2019,03,19,01,39,4.00
2019,03,19,01,40,4.00
2019,03,19,01,41,4.00
2019,03,19,01,42,4.00
2019,03,19,01,43,4.00
2019,03,19,01,44,4.00
2019,03,19,01,45,3.90
2019,03,19,01,46,3.90
2019,03,19,01,47,3.90
2019,03,19,01,48,3.90
2019,03,19,01,49,3.90
2019,03,19,01,50,3.90
2019,03,19,01,51,3.90
2019,03,19,01,52,3.80
2019,03,19,01,53,3.80
2019,03,19,01,54,3.80
2019,03,19,01,55,3.80
2019,03,19,01,56,3.80
2019,03,19,01,57,3.80
2019,03,19,01,58,3.80
2019,03,19,01,59,3.80
2019,03,19,02,00,3.70
2019,03,19,02,01,3.70
2019,03,19,02,02,3.70
2019,03,19,02,03,3.70
2019,03,19,02,04,3.70
2019,03,19,02,05,3.70
2019,03,19,02,06,3.70
2019,03,19,02,07,3.70
2019,03,19,02,08,3.60
2019,03,19,02,09,3.60
2019,03,19,02,10,3.60
2019,03,19,02,11,3.60
2019,03,19,02,12,3.60
2019,03,19,02,13,3.50
2019,03,19,02,14,3.50
2019,03,19,02,15,3.50
2019,03,19,02,16,3.50
2019,03,19,02,17,3.40
2019,03,19,02,18,3.40
2019,03,19,02,19,3.30
2019,03,19,02,20,3.30
2019,03,19,02,21,3.30
2019,03,19,02,22,3.30
2019,03,19,02,23,3.30
2019,03,19,02,24,3.30
2019,03,19,02,25,3.30
2019,03,19,02,26,3.30
2019,03,19,02,27,3.30
2019,03,19,02,28,3.30
2019,03,19,02,29,3.30
2019,03,19,02,30,3.30
2019,03,19,02,31,3.30
2019,03,19,02,32,3.30
2019,03,19,02,33,3.30
2019,03,19,02,34,3.30
2019,03,19,02,35,3.30
2019,03,19,02,36,3.30
2019,03,19,02,37,3.30
2019,03,19,02,38,3.30
2019,03,19,02,39,3.30
2019,03,19,02,40,3.30
2019,03,19,02,41,3.30
2019,03,19,02,42,3.30
2019,03,19,02,43,3.30
2019,03,19,02,44,3.30
2019,03,19,02,45,3.30
2019,03,19,02,46,3.30
2019,03,19,02,47,3.30
2019,03,19,02,48,3.30
2019,03,19,02,49,3.30
2019,03,19,02,50,3.30
2019,03,19,02,51,3.30
2019,03,19,02,52,3.30
2019,03,19,02,53,3.30
2019,03,19,02,54,3.30
2019,03,19,02,55,3.30
2019,03,19,02,56,3.30
2019,03,19,02,57,3.30
2019,03,19,02,58,3.30
2019,03,19,02,59,3.20
2019,03,19,03,00,3.20
2019,03,19,03,01,3.20
2019,03,19,03,02,3.20
2019,03,19,03,03,3.20
2019,03,19,03,04,3.20
2019,03,19,03,05,3.20
2019,03,19,03,06,3.20
2019,03,19,03,07,3.10
2019,03,19,03,08,3.10
2019,03,19,03,09,3.10
2019,03,19,03,10,3.10
2019,03,19,03,11,3.00
2019,03,19,03,12,2.90
2019,03,19,03,13,2.90
2019,03,19,03,14,2.90
2019,03,19,03,15,2.90
2019,03,19,03,16,2.90
2019,03,19,03,17,2.90
2019,03,19,03,18,2.90
2019,03,19,03,19,2.90
2019,03,19,03,20,2.90
2019,03,19,03,21,2.90
2019,03,19,03,22,2.90
2019,03,19,03,23,2.90
2019,03,19,03,24,2.90
2019,03,19,03,25,2.80
2019,03,19,03,26,2.80
2019,03,19,03,27,2.80
2019,03,19,03,28,2.80
2019,03,19,03,29,2.80
2019,03,19,03,30,2.80
2019,03,19,03,31,2.90
2019,03,19,03,32,2.90
2019,03,19,03,33,2.90
2019,03,19,03,34,2.90
2019,03,19,03,35,2.90
2019,03,19,03,36,2.90
2019,03,19,03,37,2.90
2019,03,19,03,38,2.90
2019,03,19,03,39,2.90
2019,03,19,03,40,2.80
2019,03,19,03,41,2.80
2019,03,19,03,42,2.80
2019,03,19,03,43,2.80
2019,03,19,03,44,2.80
2019,03,19,03,45,2.80
2019,03,19,03,46,2.80
2019,03,19,03,47,2.80
2019,03,19,03,48,2.80
2019,03,19,03,49,2.80
2019,03,19,03,50,2.80
2019,03,19,03,51,2.80
2019,03,19,03,52,2.80
2019,03,19,03,53,2.80
2019,03,19,03,54,2.80
2019,03,19,03,55,2.80
2019,03,19,03,56,2.80
2019,03,19,03,57,2.80
2019,03,19,03,58,2.80
2019,03,19,03,59,2.80
2019,03,19,04,00,2.80
2019,03,19,04,01,2.80
2019,03,19,04,02,2.70
2019,03,19,04,03,2.70
2019,03,19,04,04,2.70
2019,03,19,04,05,2.70
2019,03,19,04,06,2.70
2019,03,19,04,07,2.80
2019,03,19,04,08,2.80
2019,03,19,04,09,2.80
2019,03,19,04,10,2.80
2019,03,19,04,11,2.80
2019,03,19,04,12,2.80
2019,03,19,04,13,2.80
2019,03,19,04,14,2.80
2019,03,19,04,15,2.80
2019,03,19,04,16,2.80
2019,03,19,04,17,2.80
2019,03,19,04,18,2.80
2019,03,19,04,19,2.80
2019,03,19,04,20,2.80
2019,03,19,04,21,2.80
2019,03,19,04,22,2.80
2019,03,19,04,23,2.80
2019,03,19,04,24,2.80
2019,03,19,04,25,2.80
2019,03,19,04,26,2.80
2019,03,19,04,27,2.70
2019,03,19,04,28,2.70
2019,03,19,04,29,2.60
2019,03,19,04,30,2.60
2019,03,19,04,31,2.50
2019,03,19,04,32,2.50
2019,03,19,04,33,2.50
2019,03,19,04,34,2.50
2019,03,19,04,35,2.50
2019,03,19,04,36,2.60
2019,03,19,04,37,2.60
2019,03,19,04,38,2.60
2019,03,19,04,39,2.60
2019,03,19,04,40,2.60
2019,03,19,04,41,2.60
2019,03,19,04,42,2.60
2019,03,19,04,43,2.60
2019,03,19,04,44,2.60
2019,03,19,04,45,2.50
2019,03,19,04,46,2.50
2019,03,19,04,47,2.50
2019,03,19,04,48,2.60
2019,03,19,04,49,2.60
2019,03,19,04,50,2.60
2019,03,19,04,51,2.60
2019,03,19,04,52,2.70
2019,03,19,04,53,2.70
2019,03,19,04,54,2.70
2019,03,19,04,55,2.70
2019,03,19,04,56,2.70
2019,03,19,04,57,2.60
2019,03,19,04,58,2.60
2019,03,19,04,59,2.70
2019,03,19,05,00,2.70
2019,03,19,05,01,2.70
2019,03,19,05,02,2.70
2019,03,19,05,03,2.70
2019,03,19,05,04,2.70
2019,03,19,05,05,2.70
2019,03,19,05,06,2.70
2019,03,19,05,07,2.60
2019,03,19,05,08,2.60
2019,03,19,05,09,2.60
2019,03,19,05,10,2.60
2019,03,19,05,11,2.60
2019,03,19,05,12,2.50
2019,03,19,05,13,2.50
2019,03,19,05,14,2.40
2019,03,19,05,15,2.40
2019,03,19,05,16,2.40
2019,03,19,05,17,2.30
2019,03,19,05,18,2.30
2019,03,19,05,19,2.30
2019,03,19,05,20,2.30
2019,03,19,05,21,2.30
2019,03,19,05,22,2.30
2019,03,19,05,23,2.20
2019,03,19,05,24,2.20
2019,03,19,05,25,2.20
2019,03,19,05,26,2.20
2019,03,19,05,27,2.20
2019,03,19,05,28,2.10
2019,03,19,05,29,2.10
2019,03,19,05,30,2.10
2019,03,19,05,31,2.10
2019,03,19,05,32,2.10
2019,03,19,05,33,2.10
2019,03,19,05,34,2.10
2019,03,19,05,35,2.10
2019,03,19,05,36,2.10
2019,03,19,05,37,2.10
2019,03,19,05,38,2.10
2019,03,19,05,39,2.20
2019,03,19,05,40,2.20
2019,03,19,05,41,2.20
2019,03,19,05,42,2.20
2019,03,19,05,43,2.20
2019,03,19,05,44,2.20
2019,03,19,05,45,2.20
2019,03,19,05,46,2.30
2019,03,19,05,47,2.30
2019,03,19,05,48,2.30
2019,03,19,05,49,2.30
2019,03,19,05,50,2.30
2019,03,19,05,51,2.30
2019,03,19,05,52,2.30
2019,03,19,05,53,2.30
2019,03,19,05,54,2.30
2019,03,19,05,55,2.30
2019,03,19,05,56,2.30
2019,03,19,05,57,2.30
2019,03,19,05,58,2.30
2019,03,19,05,59,2.20
2019,03,19,06,00,2.20
2019,03,19,06,01,2.20
2019,03,19,06,02,2.20
2019,03,19,06,03,2.20
2019,03,19,06,04,2.20
2019,03,19,06,05,2.20
2019,03,19,06,06,2.20
2019,03,19,06,07,2.20
2019,03,19,06,08,2.20
2019,03,19,06,09,2.20
2019,03,19,06,10,2.20
2019,03,19,06,11,2.20
2019,03,19,06,12,2.20
2019,03,19,06,13,2.20
2019,03,19,06,14,2.10
2019,03,19,06,15,2.10
2019,03,19,06,16,2.10
2019,03,19,06,17,2.20
2019,03,19,06,18,2.20
2019,03,19,06,19,2.20
2019,03,19,06,20,2.20
2019,03,19,06,21,2.20
2019,03,19,06,22,2.10
2019,03,19,06,23,2.10
2019,03,19,06,24,2.10
2019,03,19,06,25,2.00
2019,03,19,06,26,2.00
2019,03,19,06,27,1.90
2019,03,19,06,28,1.90
2019,03,19,06,29,1.90
2019,03,19,06,30,1.90
2019,03,19,06,31,1.90
2019,03,19,06,32,1.90
2019,03,19,06,33,2.00
2019,03,19,06,34,2.00
2019,03,19,06,35,2.00
2019,03,19,06,36,2.00
2019,03,19,06,37,2.10
2019,03,19,06,38,2.00
2019,03,19,06,39,2.00
2019,03,19,06,40,2.00
2019,03,19,06,41,2.00
2019,03,19,06,42,1.90
2019,03,19,06,43,1.90
2019,03,19,06,44,1.90
2019,03,19,06,45,1.90
2019,03,19,06,46,1.90
2019,03,19,06,47,1.90
2019,03,19,06,48,1.90
2019,03,19,06,49,1.90
2019,03,19,06,50,1.90
2019,03,19,06,51,1.90
2019,03,19,06,52,1.90
2019,03,19,06,53,1.90
2019,03,19,06,54,1.90
2019,03,19,06,55,1.90
2019,03,19,06,56,1.90
2019,03,19,06,57,1.90
2019,03,19,06,58,1.90
2019,03,19,06,59,1.90
2019,03,19,07,00,1.80
2019,03,19,07,01,1.80
2019,03,19,07,02,1.80
2019,03,19,07,03,1.80
2019,03,19,07,04,1.80
2019,03,19,07,05,1.70
2019,03,19,07,06,1.70
2019,03,19,07,07,1.70
2019,03,19,07,08,1.70
2019,03,19,07,09,1.70
2019,03,19,07,10,1.70
2019,03,19,07,11,1.70
2019,03,19,07,12,1.70
2019,03,19,07,13,1.70
2019,03,19,07,14,1.70
2019,03,19,07,15,1.70
2019,03,19,07,16,1.70
2019,03,19,07,17,1.70
2019,03,19,07,18,1.70
2019,03,19,07,19,1.70
2019,03,19,07,20,1.70
2019,03,19,07,21,1.70
2019,03,19,07,22,1.60
2019,03,19,07,23,1.60
2019,03,19,07,24,1.60
2019,03,19,07,25,1.60
2019,03,19,07,26,1.60
2019,03,19,07,27,1.70
2019,03,19,07,28,1.70
2019,03,19,07,29,1.70
2019,03,19,07,30,1.70
2019,03,19,07,31,1.70
2019,03,19,07,32,1.70
2019,03,19,07,33,1.70
2019,03,19,07,34,1.70
2019,03,19,07,35,1.60
2019,03,19,07,36,1.70
2019,03,19,07,37,1.70
2019,03,19,07,38,1.70
2019,03,19,07,39,1.70
2019,03,19,07,40,1.70
2019,03,19,07,41,1.70
2019,03,19,07,42,1.60
2019,03,19,07,43,1.60
2019,03,19,07,44,1.60
2019,03,19,07,45,1.60
2019,03,19,07,46,1.60
2019,03,19,07,47,1.60
2019,03,19,07,48,1.60
2019,03,19,07,49,1.60
2019,03,19,07,50,1.60
2019,03,19,07,51,1.60
2019,03,19,07,52,1.60
2019,03,19,07,53,1.60
2019,03,19,07,54,1.60
2019,03,19,07,55,1.60
2019,03,19,07,56,1.60
2019,03,19,07,57,1.60
2019,03,19,07,58,1.60
2019,03,19,07,59,1.60
2019,03,19,08,00,1.60
2019,03,19,08,01,1.60
2019,03,19,08,02,1.60
2019,03,19,08,03,1.60
2019,03,19,08,04,1.60
2019,03,19,08,05,1.60
2019,03,19,08,06,1.60
2019,03,19,08,07,1.60
2019,03,19,08,08,1.60
2019,03,19,08,09,1.60
2019,03,19,08,10,1.60
2019,03,19,08,11,1.60
2019,03,19,08,12,1.60
2019,03,19,08,13,1.60
2019,03,19,08,14,1.60
2019,03,19,08,15,1.70
2019,03,19,08,16,1.70
2019,03,19,08,17,1.70
2019,03,19,08,18,1.70
2019,03,19,08,19,1.70
2019,03,19,08,20,1.80
2019,03,19,08,21,1.80
2019,03,19,08,22,1.80
2019,03,19,08,23,1.90
2019,03,19,08,24,1.90
2019,03,19,08,25,1.90
2019,03,19,08,26,1.90
2019,03,19,08,27,2.00
2019,03,19,08,28,2.00
2019,03,19,08,29,2.00
2019,03,19,08,30,2.00
2019,03,19,08,31,2.10
2019,03,19,08,32,2.10
2019,03,19,08,33,2.10
2019,03,19,08,34,2.20
2019,03,19,08,35,2.20
2019,03,19,08,36,2.30
2019,03,19,08,37,2.30
2019,03,19,08,38,2.40
2019,03,19,08,39,2.40
2019,03,19,08,40,2.50
2019,03,19,08,41,2.50
2019,03,19,08,42,2.60
2019,03,19,08,43,2.60
2019,03,19,08,44,2.70
2019,03,19,08,45,2.70
2019,03,19,08,46,2.70
2019,03,19,08,47,2.80
2019,03,19,08,48,2.80
2019,03,19,08,49,2.90
2019,03,19,08,50,2.90
2019,03,19,08,51,2.90
2019,03,19,08,52,2.90
2019,03,19,08,53,2.90
2019,03,19,08,54,3.00
2019,03,19,08,55,3.00
2019,03,19,08,56,3.00
2019,03,19,08,57,3.00
2019,03,19,08,58,3.10
2019,03,19,08,59,3.10
2019,03,19,09,00,3.10
2019,03,19,09,01,3.10
2019,03,19,09,02,3.20
2019,03,19,09,03,3.20
2019,03,19,09,04,3.20
2019,03,19,09,05,3.30
2019,03,19,09,06,3.30
2019,03,19,09,07,3.40
2019,03,19,09,08,3.40
2019,03,19,09,09,3.40
2019,03,19,09,10,3.40
2019,03,19,09,11,3.50
2019,03,19,09,12,3.60
2019,03,19,09,13,3.60
2019,03,19,09,14,3.70
2019,03,19,09,15,3.70
2019,03,19,09,16,3.80
2019,03,19,09,17,3.80
2019,03,19,09,18,3.80
2019,03,19,09,19,3.80
2019,03,19,09,20,3.90
2019,03,19,09,21,4.00
2019,03,19,09,22,4.10
2019,03,19,09,23,4.30
2019,03,19,09,24,4.40
2019,03,19,09,25,4.50
2019,03,19,09,26,4.60
2019,03,19,09,27,4.70
2019,03,19,09,28,4.80
2019,03,19,09,29,4.90
2019,03,19,09,30,5.00
2019,03,19,09,31,5.10
2019,03,19,09,32,5.20
2019,03,19,09,33,5.20
2019,03,19,09,34,5.30
2019,03,19,09,35,5.40
2019,03,19,09,36,5.50
2019,03,19,09,37,5.60
2019,03,19,09,38,5.60
2019,03,19,09,39,5.70
2019,03,19,09,40,5.70
2019,03,19,09,41,5.80
2019,03,19,09,42,5.80
2019,03,19,09,43,5.90
2019,03,19,09,44,5.90
2019,03,19,09,45,6.00
2019,03,19,09,46,6.00
2019,03,19,09,47,6.10
2019,03,19,09,48,6.30
2019,03,19,09,49,6.40
2019,03,19,09,50,6.50
2019,03,19,09,51,6.60
2019,03,19,09,52,6.70
2019,03,19,09,53,6.80
2019,03,19,09,54,6.90
2019,03,19,09,55,7.00
2019,03,19,09,56,7.10
2019,03,19,09,57,7.20
2019,03,19,09,58,7.20
2019,03,19,09,59,7.20
2019,03,19,10,00,7.20
2019,03,19,10,01,7.20
2019,03,19,10,02,7.20
2019,03,19,10,03,7.20
2019,03,19,10,04,7.20
2019,03,19,10,05,7.20
2019,03,19,10,06,7.20
2019,03,19,10,07,7.30
2019,03,19,10,08,7.30
2019,03,19,10,09,7.30
2019,03,19,10,10,7.30
2019,03,19,10,11,7.30
2019,03,19,10,12,7.40
2019,03,19,10,13,7.40
2019,03,19,10,14,7.50
2019,03,19,10,15,7.60
2019,03,19,10,16,7.70
2019,03,19,10,17,7.80
2019,03,19,10,18,7.90
2019,03,19,10,19,8.00
2019,03,19,10,20,8.20
2019,03,19,10,21,8.20
2019,03,19,10,22,8.30
2019,03,19,10,23,8.40
2019,03,19,10,24,8.50
2019,03,19,10,25,8.60
2019,03,19,10,26,8.60
2019,03,19,10,27,8.70
2019,03,19,10,28,8.80
2019,03,19,10,29,8.90
2019,03,19,10,30,9.00
2019,03,19,10,31,9.20
2019,03,19,10,32,9.30
2019,03,19,10,33,9.40
2019,03,19,10,34,9.50
2019,03,19,10,35,9.70
2019,03,19,10,36,9.80
2019,03,19,10,37,10.00
2019,03,19,10,38,10.20
2019,03,19,10,39,10.30
2019,03,19,10,40,10.50
2019,03,19,10,41,10.70
2019,03,19,10,42,10.90
2019,03,19,10,43,11.10
2019,03,19,10,44,11.20
2019,03,19,10,45,11.40
2019,03,19,10,46,11.50
2019,03,19,10,47,11.70
2019,03,19,10,48,11.80
2019,03,19,10,49,11.90
2019,03,19,10,50,12.00
2019,03,19,10,51,12.10
2019,03,19,10,52,12.20
2019,03,19,10,53,12.30
2019,03,19,10,54,12.40
2019,03,19,10,55,12.50
2019,03,19,10,56,12.50
2019,03,19,10,57,12.60
2019,03,19,10,58,12.70
2019,03,19,10,59,12.80
2019,03,19,11,00,12.90
2019,03,19,11,01,13.00
2019,03,19,11,02,13.10
2019,03,19,11,03,13.20
2019,03,19,11,04,13.30
2019,03,19,11,05,13.50
2019,03,19,11,06,13.60
2019,03,19,11,07,13.80
2019,03,19,11,08,13.90
2019,03,19,11,09,14.00
2019,03,19,11,10,14.10
2019,03,19,11,11,14.30
2019,03,19,11,12,14.40
2019,03,19,11,13,14.60
2019,03,19,11,14,14.70
2019,03,19,11,15,14.80
2019,03,19,11,16,14.90
2019,03,19,11,17,15.00
2019,03,19,11,18,15.00
2019,03,19,11,19,15.10
2019,03,19,11,20,15.20
2019,03,19,11,21,15.30
2019,03,19,11,22,15.40
2019,03,19,11,23,15.50
2019,03,19,11,24,15.60
2019,03,19,11,25,15.70
2019,03,19,11,26,15.70
2019,03,19,11,27,15.70
2019,03,19,11,28,15.70
2019,03,19,11,29,15.70
2019,03,19,11,30,15.80
2019,03,19,11,31,15.80
2019,03,19,11,32,15.80
2019,03,19,11,33,15.90
2019,03,19,11,34,15.90
2019,03,19,11,35,16.00
2019,03,19,11,36,16.10
2019,03,19,11,37,16.20
2019,03,19,11,38,16.30
2019,03,19,11,39,16.30
2019,03,19,11,40,16.40
2019,03,19,11,41,16.50
2019,03,19,11,42,16.60
2019,03,19,11,43,16.60
2019,03,19,11,44,16.60
2019,03,19,11,45,16.60
2019,03,19,11,46,16.60
2019,03,19,11,47,16.70
2019,03,19,11,48,16.70
2019,03,19,11,49,16.80
2019,03,19,11,50,16.80
2019,03,19,11,51,16.90
2019,03,19,11,52,17.00
2019,03,19,11,53,17.00
2019,03,19,11,54,17.00
2019,03,19,11,55,17.00
2019,03,19,11,56,17.00
2019,03,19,11,57,17.10
2019,03,19,11,58,17.10
2019,03,19,11,59,17.10
2019,03,19,12,00,17.20
2019,03,19,12,01,17.20
2019,03,19,12,02,17.20
2019,03,19,12,03,17.30
2019,03,19,12,04,17.30
2019,03,19,12,05,17.30
2019,03,19,12,06,17.30
2019,03,19,12,07,17.40
2019,03,19,12,08,17.40
2019,03,19,12,09,17.50
2019,03,19,12,10,17.50
2019,03,19,12,11,17.60
2019,03,19,12,12,17.60
2019,03,19,12,13,17.70
2019,03,19,12,14,17.80
2019,03,19,12,15,17.80
2019,03,19,12,16,17.80
2019,03,19,12,17,17.80
2019,03,19,12,18,17.80
2019,03,19,12,19,17.80
2019,03,19,12,20,17.80
2019,03,19,12,21,17.80
2019,03,19,12,22,17.80
2019,03,19,12,23,17.80
2019,03,19,12,24,17.90
2019,03,19,12,25,17.90
2019,03,19,12,26,18.00
2019,03,19,12,27,18.00
2019,03,19,12,28,18.10
2019,03,19,12,29,18.10
2019,03,19,12,30,18.20
2019,03,19,12,31,18.20
2019,03,19,12,32,18.20
2019,03,19,12,33,18.30
2019,03,19,12,34,18.30
2019,03,19,12,35,18.30
2019,03,19,12,36,18.30
2019,03,19,12,37,18.40
2019,03,19,12,38,18.50
2019,03,19,12,39,18.50
2019,03,19,12,40,18.60
2019,03,19,12,41,18.60
2019,03,19,12,42,18.60
2019,03,19,12,43,18.60
2019,03,19,12,44,18.60
2019,03,19,12,45,18.70
2019,03,19,12,46,18.70
2019,03,19,12,47,18.80
2019,03,19,12,48,18.80
2019,03,19,12,49,18.90
2019,03,19,12,50,18.70
2019,03,19,12,51,18.50
2019,03,19,12,52,18.40
2019,03,19,12,53,18.40
2019,03,19,12,54,18.40
2019,03,19,12,55,18.40
2019,03,19,12,56,18.40
2019,03,19,12,57,18.40
2019,03,19,12,58,18.30
2019,03,19,12,59,18.30
2019,03,19,13,00,18.30
2019,03,19,13,01,18.30
2019,03,19,13,02,18.30
2019,03,19,13,03,18.30
2019,03,19,13,04,18.40
2019,03,19,13,05,18.40
2019,03,19,13,06,18.40
2019,03,19,13,07,18.50
2019,03,19,13,08,18.60
2019,03,19,13,09,18.70
2019,03,19,13,10,18.70
2019,03,19,13,11,18.80
2019,03,19,13,12,18.80
2019,03,19,13,13,18.90
2019,03,19,13,14,18.90
2019,03,19,13,15,18.90
2019,03,19,13,16,19.00
2019,03,19,13,17,18.90
2019,03,19,13,18,18.90
2019,03,19,13,19,19.00
2019,03,19,13,20,19.10
2019,03,19,13,21,19.10
2019,03,19,13,22,19.20
2019,03,19,13,23,19.30
2019,03,19,13,24,19.40
2019,03,19,13,25,19.50
2019,03,19,13,26,19.50
2019,03,19,13,27,19.60
2019,03,19,13,28,19.70
2019,03,19,13,29,19.80
2019,03,19,13,30,19.70
2019,03,19,13,31,19.70
2019,03,19,13,32,19.70
2019,03,19,13,33,19.80
2019,03,19,13,34,19.80
2019,03,19,13,35,19.80
2019,03,19,13,36,19.70
2019,03,19,13,37,19.50
2019,03,19,13,38,19.40
2019,03,19,13,39,19.40
2019,03,19,13,40,19.40
2019,03,19,13,41,19.30
2019,03,19,13,42,19.30
2019,03,19,13,43,19.40
2019,03,19,13,44,19.40
2019,03,19,13,45,19.50
2019,03,19,13,46,19.60
2019,03,19,13,47,19.60
2019,03,19,13,48,19.70
2019,03,19,13,49,19.80
2019,03,19,13,50,19.90
2019,03,19,13,51,20.00
2019,03,19,13,52,20.10
2019,03,19,13,53,20.20
2019,03,19,13,54,20.40
2019,03,19,13,55,20.50
2019,03,19,13,56,20.60
2019,03,19,13,57,20.80
2019,03,19,13,58,20.90
2019,03,19,13,59,20.90
2019,03,19,14,00,20.90
2019,03,19,14,01,20.90
2019,03,19,14,02,20.90
2019,03,19,14,03,20.80
2019,03,19,14,04,20.80
2019,03,19,14,05,20.80
2019,03,19,14,06,20.80
2019,03,19,14,07,20.80
2019,03,19,14,08,20.90
2019,03,19,14,09,20.90
2019,03,19,14,10,21.00
2019,03,19,14,11,21.00
2019,03,19,14,12,21.10
2019,03,19,14,13,21.10
2019,03,19,14,14,21.20
2019,03,19,14,15,21.20
2019,03,19,14,16,21.30
2019,03,19,14,17,21.30
2019,03,19,14,18,21.30
2019,03,19,14,19,21.30
2019,03,19,14,20,21.30
2019,03,19,14,21,21.40
2019,03,19,14,22,21.40
2019,03,19,14,23,21.50
2019,03,19,14,24,21.50
2019,03,19,14,25,21.60
2019,03,19,14,26,21.60
2019,03,19,14,27,21.70
2019,03,19,14,28,21.70
2019,03,19,14,29,21.80
2019,03,19,14,30,21.80
2019,03,19,14,31,21.80
2019,03,19,14,32,21.80
2019,03,19,14,33,21.80
2019,03,19,14,34,21.80
2019,03,19,14,35,21.80
2019,03,19,14,36,21.60
2019,03,19,14,37,21.50
2019,03,19,14,38,21.50
2019,03,19,14,39,21.40
2019,03,19,14,40,21.50
2019,03,19,14,41,21.50
2019,03,19,14,42,21.60
2019,03,19,14,43,21.70
2019,03,19,14,44,21.80
2019,03,19,14,45,21.80
2019,03,19,14,46,21.90
2019,03,19,14,47,22.00
2019,03,19,14,48,22.10
2019,03,19,14,49,22.10
2019,03,19,14,50,22.10
2019,03,19,14,51,22.20
2019,03,19,14,52,22.20
2019,03,19,14,53,22.30
2019,03,19,14,54,22.30
2019,03,19,14,55,22.30
2019,03,19,14,56,22.30
2019,03,19,14,57,22.30
2019,03,19,14,58,22.30
2019,03,19,14,59,22.30
2019,03,19,15,00,22.20
2019,03,19,15,01,22.20
2019,03,19,15,02,22.10
2019,03,19,15,03,21.90
2019,03,19,15,04,21.90
2019,03,19,15,05,21.80
2019,03,19,15,06,21.80
2019,03,19,15,07,21.80
2019,03,19,15,08,21.90
2019,03,19,15,09,22.00
2019,03,19,15,10,22.00
2019,03,19,15,11,22.10
2019,03,19,15,12,22.20
2019,03,19,15,13,22.20
2019,03,19,15,14,22.30
2019,03,19,15,15,22.30
2019,03,19,15,16,22.40
2019,03,19,15,17,22.50
2019,03,19,15,18,22.50
2019,03,19,15,19,22.50
2019,03,19,15,20,22.60
2019,03,19,15,21,22.60
2019,03,19,15,22,22.60
2019,03,19,15,23,22.60
2019,03,19,15,24,22.60
2019,03,19,15,25,22.70
2019,03,19,15,26,22.70
2019,03,19,15,27,22.70
2019,03,19,15,28,22.80
2019,03,19,15,29,22.80
2019,03,19,15,30,22.80
2019,03,19,15,31,22.80
2019,03,19,15,32,22.80
2019,03,19,15,33,22.80
2019,03,19,15,34,22.80
2019,03,19,15,35,22.80
2019,03,19,15,36,22.80
2019,03,19,15,37,22.80
2019,03,19,15,38,22.80
2019,03,19,15,39,22.80
2019,03,19,15,40,22.70
2019,03,19,15,41,22.60
2019,03,19,15,42,22.40
2019,03,19,15,43,22.30
2019,03,19,15,44,22.20
2019,03,19,15,45,22.00
2019,03,19,15,46,22.00
2019,03,19,15,47,21.90
2019,03,19,15,48,21.90
2019,03,19,15,49,21.90
2019,03,19,15,50,21.90
2019,03,19,15,51,21.90
2019,03,19,15,52,21.90
2019,03,19,15,53,21.90
2019,03,19,15,54,21.90
2019,03,19,15,55,21.80
2019,03,19,15,56,21.80
2019,03,19,15,57,21.80
2019,03,19,15,58,21.90
2019,03,19,15,59,21.80
2019,03,19,16,00,21.80
2019,03,19,16,01,21.80
2019,03,19,16,02,21.80
2019,03,19,16,03,21.90
2019,03,19,16,04,22.00
2019,03,19,16,05,22.10
2019,03,19,16,06,22.20
2019,03,19,16,07,22.30
2019,03,19,16,08,22.40
2019,03,19,16,09,22.40
2019,03,19,16,10,22.50
2019,03,19,16,11,22.60
2019,03,19,16,12,22.70
2019,03,19,16,13,22.70
2019,03,19,16,14,22.80
2019,03,19,16,15,22.80
2019,03,19,16,16,22.90
2019,03,19,16,17,22.90
2019,03,19,16,18,23.00
2019,03,19,16,19,23.00
2019,03,19,16,20,23.10
2019,03,19,16,21,23.10
2019,03,19,16,22,23.10
2019,03,19,16,23,23.10
2019,03,19,16,24,23.20
2019,03,19,16,25,23.20
2019,03,19,16,26,23.20
2019,03,19,16,27,23.20
2019,03,19,16,28,23.30
2019,03,19,16,29,23.30
2019,03,19,16,30,23.30
2019,03,19,16,31,23.30
2019,03,19,16,32,23.30
2019,03,19,16,33,23.30
2019,03,19,16,34,23.30
2019,03,19,16,35,23.30
2019,03,19,16,36,23.30
2019,03,19,16,37,23.30
2019,03,19,16,38,23.30
2019,03,19,16,39,23.30
2019,03,19,16,40,23.30
2019,03,19,16,41,23.40
2019,03,19,16,42,23.40
2019,03,19,16,43,23.40
2019,03,19,16,44,23.40
2019,03,19,16,45,23.40
2019,03,19,16,46,23.30
2019,03,19,16,47,23.20
2019,03,19,16,48,23.20
2019,03,19,16,49,23.10
2019,03,19,16,50,23.10
2019,03,19,16,51,23.10
2019,03,19,16,52,23.00
2019,03,19,16,53,23.00
2019,03,19,16,54,22.90
2019,03,19,16,55,22.90
2019,03,19,16,56,22.90
2019,03,19,16,57,22.80
2019,03,19,16,58,22.80
2019,03,19,16,59,22.80
2019,03,19,17,00,22.80
2019,03,19,17,01,22.80
2019,03,19,17,02,22.80
2019,03,19,17,03,22.80
2019,03,19,17,04,22.70
2019,03,19,17,05,22.70
2019,03,19,17,06,22.70
2019,03,19,17,07,22.70
2019,03,19,17,08,22.60
2019,03,19,17,09,22.60
2019,03,19,17,10,22.60
2019,03,19,17,11,22.50
2019,03,19,17,12,22.50
2019,03,19,17,13,22.40
2019,03,19,17,14,22.40
2019,03,19,17,15,22.30
2019,03,19,17,16,22.30
2019,03,19,17,17,22.20
2019,03,19,17,18,22.20
2019,03,19,17,19,22.10
2019,03,19,17,20,22.10
2019,03,19,17,21,22.00
2019,03,19,17,22,22.00
2019,03,19,17,23,22.00
2019,03,19,17,24,21.90
2019,03,19,17,25,21.90
2019,03,19,17,26,21.80
2019,03,19,17,27,21.80
2019,03,19,17,28,21.70
2019,03,19,17,29,21.70
2019,03,19,17,30,21.60
2019,03,19,17,31,21.50
2019,03,19,17,32,21.30
2019,03,19,17,33,21.20
2019,03,19,17,34,21.10
2019,03,19,17,35,21.00
2019,03,19,17,36,20.90
2019,03,19,17,37,20.80
2019,03,19,17,38,20.70
2019,03,19,17,39,20.70
2019,03,19,17,40,20.60
2019,03,19,17,41,20.60
2019,03,19,17,42,20.50
2019,03,19,17,43,20.50
2019,03,19,17,44,20.40
2019,03,19,17,45,20.40
2019,03,19,17,46,20.30
2019,03,19,17,47,20.20